< < Back
Terminal Aerodrome Forecast


Current Version              Previous Versions:   1  2  3  4  5  6  7  8  9  

Terminal Aerodrome Forecast

882
FTUS42 KJAX 302300
TAFSSI
TAF
KSSI 302320Z 3100/3124 03006KT P6SM VCSH SCT020 BKN120
     FM310800 35006KT P6SM FEW020 SCT250
     FM311500 33008KT P6SM FEW040=

Latest METAR

040
SAUS70 KWBC 311300 RRM
MTRSSI
METAR KSSI 311253Z AUTO 35006KT 10SM CLR 16/14 A2989 RMK AO2 SLP121
T01610144


USA.gov is the U.S. government's official web portal to all federal, state and local government web resources and services.